Regional Weather Roundup
Issued by NWS Boston, MA

Current Version | Previous Version | Text Only | Print | Product List | Glossary On
Versions: 1 2 3 4 5 6 7 8 9 10 11 12 13 14 15 16 17 18 19 20 21 22 23 24 25 26 27 28 29
000 ASUS41 KBOX 270510 RWRBOX REGIONAL WEATHER ROUNDUP NATIONAL WEATHER SERVICE BOSTON/NORTON MA 100 AM EDT SUN MAY 27 2018 NOTE: "FAIR" INDICATES FEW OR NO CLOUDS BELOW 12,000 FEET WITH NO SIGNIFICANT WEATHER AND/OR OBSTRUCTIONS TO VISIBILITY. MAZALL-270600- EASTERN MASSACHUSETTS CITY SKY/WX TMP DP RH WIND PRES REMARKS BOSTON CLOUDY 62 59 90 NE10 30.01 BEVERLY LGT RAIN 63 62 97 NE6 30.01R LAWRENCE CLOUDY 66 62 87 NE7 30.03R BEDFORD LGT RAIN 65 63 93 E8 29.99R BLUE HILL N/A 60 59 96 E12 30.00R NORWOOD FAIR 66 61 84 N5 29.99R MARSHFIELD FAIR 61 59 94 VRB6 30.00R PLYMOUTH FAIR 64 57 78 E12 29.98R TAUNTON FAIR 67 58 72 E9 29.96S NEW BEDFORD FAIR 66 59 78 NE12G21 29.95R $$ MAZALL-270600- CAPE COD AND THE ISLANDS CITY SKY/WX TMP DP RH WIND PRES REMARKS FALMOUTH FAIR 63 57 82 NE14 29.97R HYANNIS FAIR 64 58 80 E9 29.95R CHATHAM FAIR 58 55 90 NE9 29.98R PROVINCETOWN FAIR 61 56 83 E13G23 30.00R NANTUCKET FAIR 56 56 100 E6 29.94S FOG MARTHAS VNYRD FAIR 62 58 86 NE17 29.93R $$ MAZALL-270600- CENTRAL AND WESTERN MASSACHUSETTS CITY SKY/WX TMP DP RH WIND PRES REMARKS WORCESTER LGT RAIN 62 60 93 NE9G20 29.99F FITCHBURG LGT RAIN 65 65 100 CALM 30.02S ORANGE MOCLDY 66 64 93 E9 29.98F SPRINGFIELD FAIR 68 61 76 SE3 29.95R WESTFIELD FAIR 70 61 73 E8G17 29.95R NORTH ADAMS FAIR 68 61 78 E9 29.95R PITTSFIELD FAIR 68 60 75 E7 29.97R $$ RIZALL-270600- RHODE ISLAND CITY SKY/WX TMP DP RH WIND PRES REMARKS PROVIDENCE FAIR 67 59 75 NE13 29.97R NEWPORT FAIR 67 59 75 NE14G21 29.93S BLOCK ISLAND FAIR 60 56 86 NE9 29.93S SMITHFIELD FAIR 66 59 78 MISG 29.99R WESTERLY FAIR 71 60 68 NE8G20 29.93R $$ CTZALL-270600- CONNECTICUT CITY SKY/WX TMP DP RH WIND PRES REMARKS BRADLEY INTL MOCLDY 71 59 65 NE10 29.94R HARTFORD FAIR 71 60 68 NE8G22 29.94R BRIDGEPORT FAIR 65 61 87 E12 29.89R DANBURY FAIR 71 62 73 NE3 29.93R GROTON FAIR 70 60 70 NE12 29.91R NEW HAVEN FAIR 71 67 87 E3 29.89R CHESTER FAIR 72 61 68 NE8G17 29.93R MERIDEN FAIR 72 61 68 NE14G21 29.91R WILLIMANTIC LGT RAIN 70 60 70 NE12 29.96R $$ MEZ002-015-021-024-NHZ003-005-008-011-012-014-VTZ005-008-270600- NORTHERN NEW ENGLAND CITY SKY/WX TMP DP RH WIND PRES REMARKS PORTLAND ME CLOUDY 57 53 86 E8G17 30.07R BANGOR ME FAIR 53 42 66 SE9 30.13R CONCORD NH CLOUDY 65 62 90 N3 30.02R MANCHESTER NH LGT RAIN 69 63 81 NE5 30.01R NASHUA NH CLOUDY 67 64 90 SE6 30.03R PORTSMOUTH NH LGT RAIN 62 61 99 E9 30.03R FOG JAFFREY NH CLOUDY 65 63 93 VRB3 30.03R KEENE NH CLOUDY 68 63 84 VRB3 29.99S BURLINGTON VT FOG 61 59 93 CALM 29.97S VSB 1/2 MT. WASHINGTON CLOUDY 37 32 81 E9 N/A WCI 31 $$ NYZ052-076-270600- EASTERN NEW YORK CITY SKY/WX TMP DP RH WIND PRES REMARKS ALBANY CLOUDY 68 60 75 N7 29.93R NEW YORK CITY MOCLDY 82 66 58 SW7 29.86S $$ ANZALL-270600- MARINE OBSERVATIONS STATION/POSITION TIME TEMP WIND PRES VSBY WAVE AIR SEA DIR/SP/G HT/PER (UTC) (F) (DEG/KT/KT) (MB) (MI) (FT/S) BOSTON BUOY 0450 58 57 80/ 14/ 16 1015.1S 1/ 3 BUZZARDS BAY 0400 64 30/ 17/ 18 1013.8R NANTUCKET SOUND 0450 58 58 60/ 14/ 17 1014.0R 1 MASS BAY-STELLWA 0404 56 54 1014.3R 1/ 3 ISLE OF SHOALS 0400 61 50/ 9/ 10 1015.6R S OF BLOCK IS 0443 53 N/A 3/ 6 $$ ......................KEY......................... SKY/WX - SKY CONDITION/PRESENT WEATHER TMP - TEMPERATURE IN FAHRENHEIT DWPT - DEWPOINT IN FAHRENHEIT RH - RELATIVE HUMIDITY IN PERCENT WIND - DIRECTION AND SPEED IN MPH PRES - MEAN SEA LEVEL PRESSURE IN INCHES OF HG WCI - WIND CHILL INDEX VSB - VISIBILITY IN MILES HX - HEAT INDEX TC - TEMPERATURE IN CELSIUS VRB - VARIABLE WIND DIRECTION N/A - NOT AVAILABLE

USA.gov is the U.S. government's official web portal to all federal, state and local government web resources and services.